This is the latest recevied weather packets stored in our database for station/object KB1JDX. If no packets are shown the sender has not sent any weather packets the latest 10 day(s).
| Time | Temp. | Humidity | Pressure | Rain* | Wind** | Luminosity | Snow |
|---|---|---|---|---|---|---|---|
| 1787860696 | 25° C | 45% | 1016.7 hPa | 0 mm | 0 m/s | - | - |
| 1787859498 | 25° C | 47% | 1017 hPa | 0 mm | 0 m/s | - | - |
| 1787858294 | 25.56° C | 48% | 1017.1 hPa | 0 mm | 0 m/s | - | - |
| 1787858227 | 25.56° C | 48% | 1017.1 hPa | 0 mm | 0 m/s | - | - |
| 1787857094 | 26.11° C | 49% | 1016.7 hPa | 0 mm | 3.58 m/s, 246° | - | - |
| 1787855895 | 26.67° C | 48% | 1016.7 hPa | 0 mm | 2.68 m/s, 191° | - | - |
| 1787854627 | 27.22° C | 46% | 1016.7 hPa | 0 mm | 0 m/s | - | - |
| 1787853495 | 27.22° C | 46% | 1016.4 hPa | 0 mm | 0 m/s | - | - |
| 1787852297 | 27.78° C | 46% | 1016.4 hPa | 0 mm | 4.47 m/s, 237° | - | - |
| 1787851094 | 27.78° C | 44% | 1016.2 hPa | 0 mm | 0 m/s | - | - |
| 1787851027 | 27.78° C | 44% | 1016.3 hPa | 0 mm | 0 m/s | - | - |
| 1787849894 | 27.22° C | 41% | 1017.1 hPa | 0 mm | 2.68 m/s, 198° | - | - |
| 1787848696 | 26.67° C | 40% | 1017.2 hPa | 0 mm | 0 m/s | - | - |
| 1787847494 | 26.11° C | 31% | 1017.2 hPa | 0 mm | 2.24 m/s, 197° | - | - |
| 1787847427 | 26.11° C | 31% | 1017.3 hPa | 0 mm | 1.79 m/s, 241° | - | - |
| 1787845095 | 26.67° C | 28% | 1017.5 hPa | 0 mm | 0 m/s | - | - |
| 1787843894 | 26.11° C | 18% | 1017.9 hPa | 0 mm | 0 m/s | - | - |
| 1787843827 | 26.11° C | 17% | 1017.9 hPa | 0 mm | 0 m/s | - | - |
| 1787842694 | 25.56° C | 9% | 1017.9 hPa | 0 mm | 0.45 m/s, 242° | - | - |
| 1787840296 | 23.89° C | 100% | 1018.1 hPa | 0 mm | 0 m/s | - | - |
| 1787840227 | 23.89° C | 100% | 1018.1 hPa | 0 mm | 0 m/s | - | - |
| 1787839095 | 23.33° C | 100% | 1018 hPa | 0 mm | 0 m/s | - | - |
| 1787836694 | 20.56° C | 100% | 1018.1 hPa | 0 mm | 0 m/s | - | - |
| 1787836627 | 20.56° C | 100% | 1018.1 hPa | 0 mm | 0 m/s | - | - |
| 1787835494 | 19.44° C | 100% | 1018.1 hPa | 0 mm | 0 m/s | - | - |
* Rain latest hour (hover to see other rain measurements)
** Current wind speed in m/s (hover to see current wind gust speed)